Location: Civís
(42.4648°N, 1.4232°E)
Time: 18:34:32
(UTC+00:00)

Cosmos 1441 Rocket - Pass Details

Date: 20 November 2025
Orbit: 425 x 449 km, 81.1° (Epoch: 04 December)

Event Time Altitude Azimuth Distance (km) Brightness Sun altitude
Rises 04:59:41 0° 170° (S) 2,384 6.8 -20.4°
Reaches altitude 10° 05:01:50 10° 160° (SSE) 1,519 5.9 -20.1°
Maximum altitude 05:04:51 33° 94° (E) 741 4.6 -19.5°
Drops below altitude 10° 05:07:52 10° 29° (NNE) 1,526 5.8 -19.0°
Sets 05:10:02 0° 20° (NNE) 2,396 6.7 -18.6°
